Estación de San Nicolás

Ultimos registro cada 15 minutos 86
Estación Fecha / Hora Temperatura Humedad Lluvia Velocidad Dirección Radiación Presion
86 San Nicolás 06-05-2026 21:15 11,1 89 0 0 287 0 1020,7
85 San Nicolás 06-05-2026 21:00 11,1 89 0 0 287 0 1020,5
84 San Nicolás 06-05-2026 20:45 10,9 89 0 0 287 0 1020,3
83 San Nicolás 06-05-2026 20:30 10,8 88 0 0 287 0 1020,1
82 San Nicolás 06-05-2026 20:15 10,9 88 0 0 287 0 1019,8
81 San Nicolás 06-05-2026 20:00 11 86 0 0 287 0 1019,5
80 San Nicolás 06-05-2026 19:45 11,1 86 0 0 287 0 1019,2
79 San Nicolás 06-05-2026 19:30 11,5 85 0 0 287 0 1019,1
78 San Nicolás 06-05-2026 19:15 12 83 0 0 287 0 1018,9
77 San Nicolás 06-05-2026 19:00 12,5 82 0 0 287 0 1018,5
76 San Nicolás 06-05-2026 18:45 13 81 0 0,4 287 0 1018,5
75 San Nicolás 06-05-2026 18:30 13,5 79 0 0 287 0 1018,3
74 San Nicolás 06-05-2026 18:15 13,8 79 0 0,9 287 0 1018
73 San Nicolás 06-05-2026 18:00 14,2 79 0 0 287 0 1017,8
72 San Nicolás 06-05-2026 17:45 14,3 79 0 0 292 11 1017,6
71 San Nicolás 06-05-2026 17:30 14,5 80 0 0,4 296 21 1017,4
70 San Nicolás 06-05-2026 17:15 14,7 79 0 0,4 296 33 1017,3
69 San Nicolás 06-05-2026 17:00 14,9 79 0 0,4 292 28 1017,1
68 San Nicolás 06-05-2026 16:45 15,2 80 0 0,9 317 74 1016,8
67 San Nicolás 06-05-2026 16:30 15,2 79 0 0 322 90 1016,9
66 San Nicolás 06-05-2026 16:15 15,5 79 0 0,4 293 111 1016,6
65 San Nicolás 06-05-2026 16:00 15,3 80 0 3,1 299 297 1016,6
64 San Nicolás 06-05-2026 15:45 14,8 80 0 1,8 292 139 1016,3
63 San Nicolás 06-05-2026 15:30 15 82 0 1,8 311 181 1016,2
62 San Nicolás 06-05-2026 15:15 15,2 81 0 1,8 303 125 1016
61 San Nicolás 06-05-2026 15:00 15,4 81 0 0,9 340 95 1015,7
60 San Nicolás 06-05-2026 14:45 15,8 82 0 1,3 286 148 1015,1
59 San Nicolás 06-05-2026 14:30 15,9 80 0 0,9 263 172 1014,7
58 San Nicolás 06-05-2026 14:15 16 81 0 1,8 339 218 1014,2
57 San Nicolás 06-05-2026 14:00 15,9 82 0 1,3 287 276 1013,8
56 San Nicolás 06-05-2026 13:45 16,2 82 0 2,2 326 360 1013,5
55 San Nicolás 06-05-2026 13:30 16 83 0 0,9 285 250 1013,1
54 San Nicolás 06-05-2026 13:15 16,1 83 0 3,1 290 118 1012,7
53 San Nicolás 06-05-2026 13:00 15,7 86 0 3,1 316 765 1012,6
52 San Nicolás 06-05-2026 12:45 15,3 89 0 2,7 288 624 1012,2
51 San Nicolás 06-05-2026 12:30 14,7 90 0 1,8 265 330 1011,9
50 San Nicolás 06-05-2026 12:15 14,4 93 0 4,5 285 443 1011,5
49 San Nicolás 06-05-2026 12:00 13,9 95 0 0,9 317 306 1011,3
48 San Nicolás 06-05-2026 11:45 13,9 95 0 4,9 327 153 1011,2
47 San Nicolás 06-05-2026 11:30 14,3 95 0 1,8 279 42 1010,9
46 San Nicolás 06-05-2026 11:15 14,4 96 1 2,7 29 54 1009,9
45 San Nicolás 06-05-2026 11:00 14,1 95 0,5 2,2 352 44 1009,5
44 San Nicolás 06-05-2026 10:45 14,1 95 0 4 45 35 1009,2
43 San Nicolás 06-05-2026 10:30 13,9 95 0 3,6 61 49 1008,9
42 San Nicolás 06-05-2026 10:15 13,8 94 0,3 4,5 49 58 1008,8
41 San Nicolás 06-05-2026 10:00 13,8 94 0,3 6,3 49 21 1008,6
40 San Nicolás 06-05-2026 09:45 13,8 94 0 5,8 22 40 1008,5
39 San Nicolás 06-05-2026 09:30 13,7 94 0 6,3 63 70 1008,3
38 San Nicolás 06-05-2026 09:15 13,6 95 0,3 5,8 53 21 1008,1
37 San Nicolás 06-05-2026 09:00 13,5 95 0,3 5,8 59 0 1008,3
36 San Nicolás 06-05-2026 08:45 13,4 95 0,3 7,6 66 0 1008,2
35 San Nicolás 06-05-2026 08:30 13,4 95 0,8 7,6 65 0 1007,8
34 San Nicolás 06-05-2026 08:15 13,6 95 0,8 5,4 71 0 1008,3
33 San Nicolás 06-05-2026 08:00 13,6 95 0,8 5,4 65 0 1008,2
32 San Nicolás 06-05-2026 07:45 13,6 95 0,8 3,1 74 0 1008,2
31 San Nicolás 06-05-2026 07:30 13,5 95 0 5,8 65 0 1008,3
30 San Nicolás 06-05-2026 07:15 13,5 95 0 4 56 0 1008,3
29 San Nicolás 06-05-2026 07:00 13,4 95 0,5 4,5 58 0 1007,9
28 San Nicolás 06-05-2026 06:45 13,4 95 0,3 4,5 31 0 1007,6
27 San Nicolás 06-05-2026 06:30 13,4 95 0,5 4,5 63 0 1008,1
26 San Nicolás 06-05-2026 06:15 13,4 95 0,5 3,6 51 0 1008,2
25 San Nicolás 06-05-2026 06:00 13,4 95 2,8 4,5 49 0 1008,1
24 San Nicolás 06-05-2026 05:45 13,4 95 0 3,1 34 0 1008,1
23 San Nicolás 06-05-2026 05:30 13,5 94 0 2,7 57 0 1007,9
22 San Nicolás 06-05-2026 05:15 13,5 95 0,5 5,8 31 0 1007,7
21 San Nicolás 06-05-2026 05:00 13,5 94 0 4,5 76 0 1007,6
20 San Nicolás 06-05-2026 04:45 13,6 94 0 4,5 28 0 1007,8
19 San Nicolás 06-05-2026 04:30 13,6 94 0 4 51 0 1007,8
18 San Nicolás 06-05-2026 04:15 13,5 94 0 4,9 44 0 1008
17 San Nicolás 06-05-2026 04:00 13,6 94 0 4 59 0 1008,4
16 San Nicolás 06-05-2026 03:45 13,6 94 0,3 3,6 23 0 1008,3
15 San Nicolás 06-05-2026 03:30 13,6 94 0,3 2,2 8 0 1008,5
14 San Nicolás 06-05-2026 03:15 13,7 94 1,8 2,2 26 0 1008,6
13 San Nicolás 06-05-2026 03:00 13,8 93 3,3 3,6 26 0 1008,9
12 San Nicolás 06-05-2026 02:45 14 92 0,5 3,1 26 0 1009,1
11 San Nicolás 06-05-2026 02:30 14,2 91 1 2,7 1 0 1009
10 San Nicolás 06-05-2026 02:15 14,8 88 1,3 4,5 27 0 1008,7
9 San Nicolás 06-05-2026 02:00 15,4 84 0 3,6 42 0 1008,3
8 San Nicolás 06-05-2026 01:45 15,5 83 0 6,7 39 0 1008
7 San Nicolás 06-05-2026 01:30 15,4 84 0 7,2 17 0 1007,9
6 San Nicolás 06-05-2026 01:15 15,3 85 0 7,6 73 0 1007,9
5 San Nicolás 06-05-2026 01:00 15,3 85 0 7,6 65 0 1007,8
4 San Nicolás 06-05-2026 00:45 15,4 85 0 6,7 44 0 1008
3 San Nicolás 06-05-2026 00:30 15,1 86 0 5,4 81 0 1008
2 San Nicolás 06-05-2026 00:15 15,1 87 0 5,4 56 0 1008,3
1 San Nicolás 06-05-2026 00:00 15 86 0 4,5 44 0 1008,8